Time,TemperatureF,DewpointF,PressureIn,WindDirection,WindDirectionDegrees,WindSpeedMPH,WindSpeedGustMPH,Humidity,HourlyPrecipIn,Conditions,Clouds,dailyrainin,SolarRadiationWatts/m^2,SoftwareType,DateUTC
2013-08-15 00:02:00,62.0,47.0,-100.00,NE,44,1.0,6.0,57,0.00,,,-99.99,0.000000,,2013-08-15 07:02:00,
2013-08-15 00:11:00,62.0,47.0,-100.00,NE,44,1.0,6.0,57,0.00,,,-99.99,0.000000,,2013-08-15 07:11:00,
2013-08-15 00:42:00,62.0,46.0,-100.00,East,96,1.0,6.0,56,0.00,,,0.00,0.000000,,2013-08-15 07:42:00,
2013-08-15 00:52:00,62.0,46.0,-100.00,East,96,1.0,6.0,56,0.00,,,0.00,0.000000,,2013-08-15 07:52:00,
2013-08-15 01:02:00,62.0,46.0,-100.00,East,96,1.0,6.0,56,0.00,,,0.00,0.000000,,2013-08-15 08:02:00,
2013-08-15 01:11:00,62.0,46.0,-100.00,East,96,1.0,6.0,56,0.00,,,0.00,0.000000,,2013-08-15 08:11:00,
2013-08-15 01:42:00,62.0,47.0,-100.00,NNW,334,2.0,10.0,57,0.00,,,0.00,0.000000,,2013-08-15 08:42:00,
2013-08-15 01:52:00,62.0,47.0,-100.00,NNW,334,2.0,10.0,57,0.00,,,0.00,0.000000,,2013-08-15 08:52:00,
2013-08-15 02:01:00,62.0,47.0,-100.00,NNW,334,2.0,10.0,57,0.00,,,0.00,0.000000,,2013-08-15 09:01:00,
2013-08-15 02:11:00,62.0,47.0,-100.00,NNW,334,2.0,10.0,57,0.00,,,0.00,0.000000,,2013-08-15 09:11:00,
2013-08-15 02:42:00,62.0,47.0,-100.00,NW,324,1.0,5.0,57,0.00,,,0.00,0.000000,,2013-08-15 09:42:00,
2013-08-15 02:53:00,62.0,47.0,-100.00,NW,324,1.0,5.0,57,0.00,,,0.00,0.000000,,2013-08-15 09:53:00,
2013-08-15 03:03:00,62.0,47.0,-100.00,NW,324,1.0,5.0,57,0.00,,,0.00,0.000000,,2013-08-15 10:03:00,
2013-08-15 03:11:00,62.0,47.0,-100.00,NW,324,1.0,5.0,57,0.00,,,0.00,0.000000,,2013-08-15 10:11:00,
2013-08-15 03:42:00,60.0,45.0,-100.00,NW,324,1.0,3.0,57,0.00,,,0.00,0.000000,,2013-08-15 10:42:00,
2013-08-15 03:52:00,60.0,45.0,-100.00,NW,324,1.0,3.0,57,0.00,,,0.00,0.000000,,2013-08-15 10:52:00,
2013-08-15 04:02:00,60.0,45.0,-100.00,NW,324,1.0,3.0,57,0.00,,,0.00,0.000000,,2013-08-15 11:02:00,
2013-08-15 04:11:00,60.0,45.0,-100.00,NW,324,1.0,3.0,57,0.00,,,0.00,0.000000,,2013-08-15 11:11:00,
2013-08-15 04:42:00,60.0,46.0,-100.00,NNW,331,1.0,3.0,59,0.00,,,0.00,0.000000,,2013-08-15 11:42:00,
2013-08-15 04:52:00,60.0,46.0,-100.00,NNW,331,1.0,3.0,59,0.00,,,0.00,0.000000,,2013-08-15 11:52:00,
2013-08-15 05:01:00,60.0,46.0,-100.00,NNW,331,1.0,3.0,59,0.00,,,0.00,0.000000,,2013-08-15 12:01:00,
2013-08-15 05:11:00,60.0,46.0,-100.00,NNW,331,1.0,3.0,59,0.00,,,0.00,0.000000,,2013-08-15 12:11:00,
2013-08-15 05:42:00,59.0,45.0,-100.00,NNW,336,1.0,3.0,60,0.00,,,0.00,0.000000,,2013-08-15 12:42:00,
2013-08-15 05:52:00,59.0,45.0,-100.00,NNW,336,1.0,3.0,60,0.00,,,0.00,0.000000,,2013-08-15 12:52:00,
2013-08-15 06:01:00,59.0,45.0,-100.00,NNW,336,1.0,3.0,60,0.00,,,0.00,0.000000,,2013-08-15 13:01:00,
2013-08-15 06:11:00,59.0,45.0,-100.00,NNW,336,1.0,3.0,60,0.00,,,0.00,0.000000,,2013-08-15 13:11:00,
2013-08-15 06:42:00,59.0,45.0,-100.00,NNW,331,1.0,2.0,59,0.00,,,0.00,1.000000,,2013-08-15 13:42:00,
2013-08-15 06:52:00,59.0,45.0,-100.00,NNW,331,1.0,2.0,59,0.00,,,0.00,1.000000,,2013-08-15 13:52:00,
2013-08-15 07:01:00,59.0,45.0,-100.00,NNW,331,1.0,2.0,59,0.00,,,0.00,1.000000,,2013-08-15 14:01:00,
2013-08-15 07:11:00,59.0,45.0,-100.00,NNW,331,1.0,2.0,59,0.00,,,0.00,1.000000,,2013-08-15 14:11:00,
2013-08-15 08:43:00,66.0,47.0,-100.00,NE,46,1.0,3.0,51,0.00,,,0.00,169.000000,,2013-08-15 15:43:00,
2013-08-15 08:54:00,66.0,47.0,-100.00,NE,46,1.0,3.0,51,0.00,,,0.00,169.000000,,2013-08-15 15:54:00,
2013-08-15 09:03:00,66.0,47.0,-100.00,NE,46,1.0,3.0,51,0.00,,,0.00,169.000000,,2013-08-15 16:03:00,
2013-08-15 09:13:00,66.0,47.0,-100.00,NE,46,1.0,3.0,51,0.00,,,0.00,169.000000,,2013-08-15 16:13:00,
2013-08-15 09:16:00,72.0,49.0,-100.00,SW,229,1.0,5.0,45,0.00,,,0.00,438.000000,,2013-08-15 16:16:00,
2013-08-15 09:44:00,72.0,49.0,-100.00,SW,229,1.0,5.0,45,0.00,,,0.00,438.000000,,2013-08-15 16:44:00,
2013-08-15 09:55:00,72.0,49.0,-100.00,SW,229,1.0,5.0,45,0.00,,,0.00,438.000000,,2013-08-15 16:55:00,
2013-08-15 10:06:00,72.0,49.0,-100.00,SW,229,1.0,5.0,45,0.00,,,0.00,438.000000,,2013-08-15 17:06:00,
2013-08-15 10:16:00,76.0,51.0,-100.00,ESE,110,2.0,6.0,41,0.00,,,0.00,572.000000,,2013-08-15 17:16:00,
2013-08-15 10:55:00,76.0,51.0,-100.00,ESE,110,2.0,6.0,41,0.00,,,0.00,572.000000,,2013-08-15 17:55:00,
2013-08-15 11:10:00,76.0,51.0,-100.00,ESE,110,2.0,6.0,41,0.00,,,0.00,572.000000,,2013-08-15 18:10:00,
2013-08-15 11:16:00,80.0,50.0,-100.00,SE,146,3.0,7.0,35,0.00,,,0.00,711.000000,,2013-08-15 18:16:00,
2013-08-15 12:06:00,-999.0,-99.9,-100.00,SE,146,3.0,7.0,-999,0.00,,,0.00,711.000000,,2013-08-15 19:06:00,
2013-08-15 12:49:00,80.0,51.0,-100.00,NE,56,3.0,8.0,36,0.00,,,0.00,812.000000,,2013-08-15 19:49:00,
2013-08-15 13:09:00,80.0,51.0,-100.00,NE,56,3.0,8.0,36,0.00,,,0.00,812.000000,,2013-08-15 20:09:00,
2013-08-15 13:46:00,83.0,48.0,-100.00,WSW,241,5.0,15.0,30,0.00,,,0.00,851.000000,,2013-08-15 20:46:00,
2013-08-15 14:05:00,83.0,48.0,-100.00,WSW,241,5.0,15.0,30,0.00,,,0.00,851.000000,,2013-08-15 21:05:00,
2013-08-15 14:16:00,82.0,49.0,-100.00,West,263,3.0,13.0,32,0.00,,,0.00,607.000000,,2013-08-15 21:16:00,
2013-08-15 14:49:00,82.0,49.0,-100.00,West,263,3.0,13.0,32,0.00,,,0.00,607.000000,,2013-08-15 21:49:00,
2013-08-15 14:57:00,82.0,49.0,-100.00,West,263,3.0,13.0,32,0.00,,,0.00,607.000000,,2013-08-15 21:57:00,
2013-08-15 15:09:00,82.0,49.0,-100.00,West,263,3.0,13.0,32,0.00,,,0.00,607.000000,,2013-08-15 22:09:00,
2013-08-15 16:48:00,81.0,50.0,-100.00,SW,232,5.0,13.0,34,-99.99,,,0.00,518.000000,,2013-08-15 23:48:00,
2013-08-15 16:55:00,81.0,50.0,-100.00,SW,232,5.0,13.0,34,-99.99,,,0.00,518.000000,,2013-08-15 23:55:00,
2013-08-15 17:08:00,81.0,50.0,-100.00,SW,232,5.0,13.0,34,-99.99,,,0.00,518.000000,,2013-08-16 00:08:00,
2013-08-15 17:46:00,75.0,55.0,-100.00,WSW,245,6.0,18.0,49,0.00,,,0.00,343.000000,,2013-08-16 00:46:00,
2013-08-15 17:52:00,75.0,55.0,-100.00,WSW,245,6.0,18.0,49,0.00,,,0.00,343.000000,,2013-08-16 00:52:00,
2013-08-15 18:03:00,75.0,55.0,-100.00,WSW,245,6.0,18.0,49,0.00,,,0.00,343.000000,,2013-08-16 01:03:00,
2013-08-15 18:43:00,-999.0,-99.9,-100.00,WSW,248,8.0,-999.0,-999,-99.99,,,-99.99,,,2013-08-16 01:43:00,
2013-08-15 18:54:00,72.0,52.0,-100.00,WSW,248,8.0,18.0,50,0.00,,,0.00,248.000000,,2013-08-16 01:54:00,
2013-08-15 19:02:00,72.0,52.0,-100.00,WSW,248,8.0,18.0,50,0.00,,,0.00,248.000000,,2013-08-16 02:02:00,
2013-08-15 19:12:00,72.0,52.0,-100.00,WSW,248,8.0,18.0,50,0.00,,,0.00,248.000000,,2013-08-16 02:12:00,
2013-08-15 19:44:00,71.0,52.0,-100.00,WNW,286,3.0,15.0,52,0.00,,,0.00,132.000000,,2013-08-16 02:44:00,
2013-08-15 19:52:00,71.0,52.0,-100.00,WNW,286,3.0,15.0,52,0.00,,,0.00,132.000000,,2013-08-16 02:52:00,
2013-08-15 20:03:00,71.0,52.0,-100.00,WNW,286,3.0,15.0,52,0.00,,,0.00,132.000000,,2013-08-16 03:03:00,
2013-08-15 20:11:00,71.0,52.0,-100.00,WNW,286,3.0,15.0,52,0.00,,,0.00,132.000000,,2013-08-16 03:11:00,
2013-08-15 20:43:00,68.0,53.0,-100.00,WSW,241,2.0,14.0,59,0.00,,,0.00,46.000000,,2013-08-16 03:43:00,
2013-08-15 20:53:00,68.0,53.0,-100.00,WSW,241,2.0,14.0,59,0.00,,,0.00,46.000000,,2013-08-16 03:53:00,
2013-08-15 21:03:00,68.0,53.0,-100.00,WSW,241,2.0,14.0,59,0.00,,,0.00,46.000000,,2013-08-16 04:03:00,
2013-08-15 21:13:00,68.0,53.0,-100.00,WSW,241,2.0,14.0,59,0.00,,,0.00,46.000000,,2013-08-16 04:13:00,
2013-08-15 21:43:00,65.0,54.0,-100.00,NE,41,2.0,8.0,68,0.00,,,-99.99,0.000000,,2013-08-16 04:43:00,
2013-08-15 21:53:00,65.0,54.0,-100.00,NE,41,2.0,8.0,68,0.00,,,-99.99,0.000000,,2013-08-16 04:53:00,
2013-08-15 22:02:00,65.0,54.0,-100.00,NE,41,2.0,8.0,68,0.00,,,-99.99,0.000000,,2013-08-16 05:02:00,
2013-08-15 22:11:00,65.0,54.0,-100.00,NE,41,2.0,8.0,68,0.00,,,-99.99,0.000000,,2013-08-16 05:11:00,
2013-08-15 22:42:00,63.0,55.0,-100.00,West,273,1.0,5.0,76,0.00,,,0.00,0.000000,,2013-08-16 05:42:00,